CZ-4C DEB

基本信息
目录编号:
43601
目录名称:
CZ-4C DEB
国际标识:
2016-049F
轨道中心:
EARTH
物体状态:
在轨
发射日期:
2016-08-09 UTC
轨道信息
数据来源: 国际轨道数据
星历时间: 2026-09-05T12:23:14+0800
半长轴: 6933.566km
偏心率: 0.0061484
轨道倾角: 98.341°
近地点辐角: 283.542°
升交点赤经: 37.386°
平近点角: 75.896°
近地点: 512.798km
远地点: 598.06km
周期: 95.762分钟
每日圈数: 15.037228
详细信息
发射场:
TSC
轨道高度:
LEO
数据来源:
AOE Integration Group
参考系:
TEME
时间系统:
UTC
历元类型:
SGP4
2D轨道图
3D轨道图
轨道高度分析图
轨道倾角分析图
轨道综合分析图
查看轨道综合分析图